Location: Newark
(52.2090°N, 4.1550°W)
Time: 20:35:29
(UTC+00:00)

Explorer 7 - Pass Details

Date: 17 September 2019
Orbit: 485 x 680 km, 50.3° (Epoch: 13 October)

Event Time Altitude Azimuth Distance (km) Brightness Sun altitude
Exits shadow 01:42:04 16° 89° (E) 1,729 9.6 -32.1°
Drops below altitude 10° 01:43:07 10° 85° (E) 2,112 10.1 -32.0°
Sets 01:45:33 0° 81° (E) 3,036 11.1 -31.9°
